Location: Asni�res
(49.1337°N, 2.3555°E)
Time: 00:35:31
(UTC+00:00)

SL-16 R/B - Pass Details

Date: 16 October 2021
Orbit: 842 x 846 km, 71.0° (Epoch: 27 November)

Event Time Altitude Azimuth Distance (km) Brightness Sun altitude
Rises 18:04:59 0° 151° (SSE) 3,388 5.1 -11.6°
Reaches altitude 10° 18:08:34 10° 128° (SE) 2,460 4.2 -12.2°
Enters shadow 18:09:21 12° 121° (ESE) 2,326 4.0 -12.4°
